Location: Little Bennett Regional Park
(39.2840°N, 77.2890°W)
Time: 23:39:38
(UTC-04:00)

Daily predictions for brighter satellites

Satellite Brightness Start Highest point End
(mag) Time Altitude Azimuth Time Altitude Azimuth Time Altitude Azimuth
Cosmos 1812 Rocket 3.7 19:19:54 10° S 19:24:13 82° W 19:28:35 10° N
Aureole 2 Rocket 3.6 19:20:57 10° SSE 19:24:56 35° ESE 19:28:53 10° NE
Cosmos 1624 Rocket 4.2 19:23:00 10° N 19:28:06 51° ENE 19:33:09 10° SE
ATLAS CENTAUR R/B 3.5 19:27:03 10° SSW 19:31:24 53° ESE 19:44:05 10° NE
Meteor 1-22 Rocket 4.2 19:28:53 10° S 19:34:07 54° E 19:39:16 10° NNE
Cosmos 2219 Rocket 3.6 19:31:17 10° SW 19:36:34 41° WNW 19:41:55 10° N
Cosmos 921 Rocket 4.0 19:32:52 10° NNW 19:36:57 51° WSW 19:40:59 10° S
Tiangong 2 4.0 19:36:25 10° WSW 19:37:41 12° SW 19:38:57 10° SSW
Cosmos 2233 Rocket 4.2 19:31:28 10° S 19:37:45 81° W 19:44:08 10° N
HJ-1C 4.2 19:35:42 10° SE 19:38:41 31° ENE 19:41:42 10° N
USA 215 3.3 19:32:32 10° NE 19:39:05 72° SE 19:45:36 10° SW
Cosmos 1441 Rocket 3.6 19:36:22 10° NNW 19:40:06 67° W 19:43:48 10° S
Cosmos 2278 Rocket 2.5 19:35:29 10° NNW 19:41:09 73° WSW 19:46:45 10° SSE
Meteor 2-5 Rocket 4.1 19:36:32 10° NNW 19:42:09 69° W 19:47:39 10° S
METEOR-M 4.3 19:38:43 10° SSE 19:43:53 53° ENE 19:49:06 10° N
Meteor 1-29 3.8 19:40:56 10° NE 19:44:02 28° E 19:47:05 10° SSE
TIMED 4.5 19:40:15 10° NNW 19:44:37 64° ENE 19:48:56 10° SSE
Cosmos 2297 3.8 19:39:10 10° NNW 19:44:47 59° ENE 19:50:20 10° SE
Meteor 1-24 Rocket 3.6 19:41:06 10° N 19:46:47 74° E 19:52:14 10° SSE
Meteor 1-28 Rocket 3.1 19:43:10 10° NNE 19:46:55 81° ESE 19:50:37 10° S
Cosmos 1378 3.2 19:44:34 10° N 19:48:14 52° E 19:51:53 10° SSE
FENGYUN 3A 4.4 19:45:40 10° SE 19:50:18 31° ENE 19:54:58 10° N
Cosmos 1707 3.6 19:47:07 10° NNW 19:50:54 54° W 19:54:38 10° S
SJ-6B 2.9 19:47:08 10° SSE 19:51:04 84° WSW 19:55:07 10° NNW
Cosmos 1076 Rocket 3.8 19:48:13 10° N 19:52:22 43° E 19:56:30 10° SSE
Cosmos-2242 3.8 19:51:17 10° SSE 19:55:03 30° E 19:58:52 10° NNE
Cosmos 1452 Rocket 4.1 19:52:26 10° N 19:57:18 36° ENE 20:01:28 13° SE
Cosmos 1758 3.9 19:55:05 10° SSE 19:58:48 35° E 20:02:33 10° NNE
Cosmos 2369 Rocket 4.0 19:57:38 10° NNE 20:00:11 13° NE 20:01:47 12° ENE
Cosmos 192 4.3 19:55:24 10° S 20:00:16 62° ESE 20:05:11 10° NNE
Helios 1B rocket 2.4 19:56:38 10° NNE 20:00:43 63° ESE 20:04:46 10° S
Cosmos 1603 4.4 19:56:46 10° SSE 20:01:45 32° ESE 20:06:47 10° NE
SeaSat 1 3.3 19:59:45 10° NE 20:03:55 27° ESE 20:08:04 10° SSE
Cosmos 1408 Rocket 3.6 20:01:18 10° N 20:05:35 53° E 20:09:49 10° SSE
Resurs 01 Rocket 1.5 20:03:58 10° SSE 20:08:24 80° ENE 20:12:52 10° N
NOSS 3-2 (A) 3.5 20:04:55 10° SSW 20:10:57 90° W 20:17:34 10° NNE
FengYun 1-2 T 4.2 20:06:05 10° SSE 20:11:32 66° ENE 20:16:59 10° N
Cosmos 2333 Rocket 4.3 20:06:50 10° WSW 20:11:51 30° WNW 20:16:52 10° N
Okean 3 Rocket 4.5 20:07:35 10° NNW 20:12:02 54° W 20:16:26 10° S
Resurs 1-3 3.5 20:08:07 10° SSE 20:12:28 68° ENE 20:16:50 10° N
CZ-4B DEB 3.1 20:15:35 32° ESE 20:16:36 44° ENE 20:19:44 10° N
Atlas Centaur 2 3.9 20:16:16 10° WSW 20:23:53 37° SSW 20:28:58 18° SE
ATLAS CENTAUR R/B 2.7 20:20:54 10° NW 20:24:44 36° WSW 20:28:16 10° S
Meteor 1-21 Rocket 4.2 20:20:54 10° N 20:26:25 61° ENE 20:31:13 14° SSE
ALOS 2.1 20:26:02 13° SSE 20:30:12 73° ENE 20:34:52 10° N
Cosmos 1743 Rocket 3.7 20:28:01 10° N 20:32:21 49° E 20:33:30 39° SE
Cosmos 1269 Rocket 4.2 20:27:49 10° S 20:32:50 47° ESE 20:37:53 10° NNE
In-Cosmos 22 4.3 20:27:06 10° N 20:32:54 87° W 20:38:39 10° S
Cosmos 1674 3.8 20:29:50 10° NNE 20:32:23 28° NE 20:32:23 28° NE
Nadezhda 4 Rocket 4.0 20:27:19 10° N 20:33:33 61° E 20:38:48 14° SSE
Spot 2 Rocket 4.3 20:33:16 10° S 20:38:10 51° W 20:43:05 10° NNW
Cosmos 1092 Rocket 4.2 20:32:28 10° N 20:38:28 48° ENE 20:40:56 32° SE
ASTRO E2 4.0 20:35:18 10° WSW 20:38:43 26° S 20:38:55 26° S
Cosmos 1048 Rocket 4.2 20:34:42 10° S 20:39:45 46° ESE 20:44:47 10° NNE
GP-B 4.1 20:36:26 10° NNE 20:39:10 29° NE 20:39:10 29° NE
NOSS 3-3 (A) 4.5 20:35:34 10° NW 20:43:07 85° WSW 20:48:48 21° SSE
NOSS 3-3 (C) 4.5 20:35:40 10° NW 20:43:13 86° WSW 20:48:51 22° SSE
OAO 3 Rocket 3.5 20:40:41 10° WSW 20:45:20 51° S 20:46:04 46° SE
Helios 1A 4.3 20:42:24 10° S 20:46:19 40° W 20:50:17 10° NNW
NOSS 3-2 (C) 3.9 20:42:00 10° SW 20:48:00 64° NW 20:54:35 10° NNE
Envisat 4.1 20:50:02 27° NE 20:50:02 27° NE 20:53:25 10° N
CENTAUR R/B 3.4 20:45:54 10° S 20:48:51 27° SSE 20:48:51 27° SSE
Cosmos 1634 Rocket 4.1 20:49:15 35° SE 20:51:24 48° E 20:57:20 10° NNE
ATLAS 5 CENTAUR R/B 2.2 20:47:26 10° SW 20:52:08 64° NW 20:57:17 10° NNE
ASTEX 1 3.3 20:47:38 10° N 20:52:35 88° W 20:57:28 10° S
CZ-2D R/B 3.4 20:52:09 48° S 20:53:08 73° WSW 20:57:03 10° NNW
Cosmos 1953 3.4 20:50:32 10° SSW 20:54:21 44° W 20:58:11 10° N
SL-16 R/B 3.9 20:53:42 10° WSW 20:58:46 33° WNW 21:03:52 10° N
H-2A R/B 4.5 21:14:39 13° NNE 21:14:39 13° NNE 21:15:16 10° NNE
H-2A R/B 4.0 21:12:12 37° SW 21:12:56 41° W 21:16:39 10° NNW
Cosmos 2195 Rocket 4.5 21:10:28 10° N 21:16:42 62° ENE 21:16:42 62° ENE
USA 215 4.5 21:15:53 10° NE 21:21:46 37° NNW 21:27:39 10° W
ERS-1 Rocket 3.6 21:34:40 49° NNW 21:34:40 49° NNW 21:38:18 10° NNW
Cosmos 1627 Rocket 4.4 21:31:07 10° N 21:36:57 80° N 21:36:57 80° N
SeaSat 1 3.8 21:36:56 10° N 21:41:29 38° WNW 21:46:00 10° WSW
Cosmos 2369 Rocket 2.8 21:39:25 10° NNW 21:43:35 51° NNW 21:43:35 51° NNW
Cosmos 839 Rocket 4.2 21:42:17 10° NNW 21:49:20 74° N 21:49:20 74° N
Cosmos 1943 Rocket 3.8 21:51:17 10° N 21:53:52 25° N 21:53:52 25° N
